Jenks, OK

2:02 AM CST on February 22, 2017 (GMT -0600)
Jones Jr.

Weather History for KRVS - September, 2012

Change the Weather History Date:

Friday, September 14, 2012

  Actual Average (KTUL) Record (KTUL)
Temperature  
Mean Temperature 60 °F -  
Max Temperature 64 °F 83 °F 103 °F (1965)
Min Temperature 57 °F 63 °F 46 °F (1961)
Degree Days  
Heating Degree Days 6    
Growing Degree Days 10 (Base 50)    
Moisture  
Dew Point 57 °F    
Average Humidity 90    
Maximum Humidity 94    
Minimum Humidity 81    
Precipitation  
Precipitation 0.52 in - - ()
Sea Level Pressure  
Sea Level Pressure 30.26 in    
Wind  
Wind Speed 6 mph (North)    
Max Wind Speed 10 mph    
Max Gust Speed 16 mph    
Visibility 8 miles    
Events Rain    
Averages and records for this station are not official NWS values.
T = Trace of Precipitation, MM = Missing Value Source: NWS Daily Summary

Daily Weather History Graph

Daily Weather History Graph

Search for Another Location

Airport or City:

Trip Planner

Search our weather history database for the weather conditions in past years. The results will help you decide how hot, cold, wet, or windy it might be!

Date:

Astronomy

Sep. 14, 2012 Rise Set
Actual Time 7:06 AM CDT 7:31 PM CDT
Civil Twilight 6:40 AM CDT 7:57 PM CDT
Nautical Twilight 6:10 AM CDT 8:27 PM CDT
Astronomical Twilight 5:39 AM CDT 8:58 PM CDT
Moon 5:33 AM CDT (9/14) 6:28 PM CDT (9/14)
Length of Visible Light 13h 17m
Length of Day
12h 25m
Waning Crescent, 2% of the Moon is Illuminated
Sep 14
Waning Crescent
Sep 15
New
Sep 22
First Quarter
Sep 29
Full
Oct 8
Last Quarter

Hourly Weather History & Observations

Time (CDT) Temp. Dew Point Humidity Pressure Visibility Wind Dir Wind Speed Gust Speed Precip Events Conditions
12:53 AM 61.0 °F 55.0 °F 81% 30.27 in 10.0 mi Variable 3.5 mph - 0.00 in Rain Light Rain
1:07 AM 60.8 °F 55.4 °F 82% 30.25 in 4.0 mi North 4.6 mph - 0.05 in Rain Heavy Rain
1:21 AM 59.0 °F 55.4 °F 88% 30.25 in 2.5 mi North 8.1 mph 16.1 mph 0.19 in Rain Heavy Rain
1:35 AM 59.0 °F 55.4 °F 88% 30.24 in 5.0 mi North 5.8 mph - 0.24 in Rain Rain
1:53 AM 59.0 °F 55.9 °F 90% 30.25 in 5.0 mi NNE 6.9 mph - 0.29 in Rain Rain
2:16 AM 59.0 °F 57.2 °F 94% 30.24 in 9.0 mi NNE 6.9 mph - 0.04 in Rain Light Rain
2:24 AM 59.0 °F 57.2 °F 94% 30.24 in 10.0 mi NNE 6.9 mph - 0.04 in Rain Light Rain
2:53 AM 59.0 °F 55.9 °F 90% 30.25 in 10.0 mi NNE 8.1 mph 16.1 mph 0.07 in Rain Light Rain
3:53 AM 59.0 °F 55.9 °F 90% 30.24 in 10.0 mi North 8.1 mph - 0.01 in Rain Light Rain
4:53 AM 57.9 °F 55.9 °F 93% 30.24 in 10.0 mi North 8.1 mph - 0.03 in Rain Light Rain
5:53 AM 57.9 °F 55.9 °F 93% 30.25 in 10.0 mi North 8.1 mph - 0.07 in Rain Light Rain
6:53 AM 57.9 °F 55.9 °F 93% 30.25 in 10.0 mi NNE 8.1 mph - 0.01 in Rain Light Rain
7:53 AM 57.9 °F 55.0 °F 90% 30.27 in 10.0 mi North 5.8 mph - 0.02 in   Overcast
8:53 AM 57.9 °F 55.0 °F 90% 30.27 in 10.0 mi North 6.9 mph - 0.00 in Rain Light Rain
9:53 AM 59.0 °F 55.9 °F 90% 30.28 in 10.0 mi NNE 8.1 mph - 0.01 in Rain Light Rain
10:53 AM 59.0 °F 55.9 °F 90% 30.29 in 10.0 mi NNE 8.1 mph - 0.01 in   Overcast
11:53 AM 60.1 °F 55.9 °F 86% 30.29 in 10.0 mi North 8.1 mph - N/A   Overcast
12:53 PM 60.1 °F 55.9 °F 86% 30.29 in 10.0 mi NNE 8.1 mph - N/A   Overcast
1:53 PM 60.1 °F 57.0 °F 90% 30.28 in 8.0 mi North 9.2 mph - 0.00 in   Overcast
2:53 PM 61.0 °F 57.0 °F 87% 30.26 in 10.0 mi NNE 10.4 mph - N/A   Overcast
3:53 PM 61.0 °F 55.9 °F 83% 30.26 in 10.0 mi NNE 10.4 mph - N/A   Overcast
4:53 PM 60.1 °F 57.0 °F 90% 30.25 in 6.0 mi North 5.8 mph - 0.00 in   Overcast
5:53 PM 60.1 °F 57.0 °F 90% 30.25 in 8.0 mi North 5.8 mph - N/A   Overcast
6:53 PM 61.0 °F 57.9 °F 90% 30.25 in 10.0 mi North 4.6 mph - N/A   Overcast
7:53 PM 61.0 °F 57.9 °F 90% 30.25 in 7.0 mi North 5.8 mph - N/A   Overcast
8:53 PM 61.0 °F 59.0 °F 93% 30.24 in 4.0 mi North 4.6 mph - N/A   Overcast
9:05 PM 60.8 °F 59.0 °F 94% 30.22 in 4.0 mi North 5.8 mph - N/A   Overcast
9:53 PM 62.1 °F 59.0 °F 90% 30.25 in 4.0 mi North 4.6 mph - N/A   Overcast
10:53 PM 62.1 °F 60.1 °F 93% 30.25 in 3.0 mi North 5.8 mph - N/A   Overcast
11:53 PM 62.1 °F 60.1 °F 93% 30.25 in 9.0 mi NNW 3.5 mph - N/A   Overcast